Location: *
(48.4317°N, 0.8875°E)
Time: 10:24:37
(UTC+00:00)

Daily predictions for brighter satellites

Satellite Brightness Start Highest point End
(mag) Time Altitude Azimuth Time Altitude Azimuth Time Altitude Azimuth
COSMOS 2406 3.8 17:28:13 10° NNW 17:33:37 39° NE 17:38:58 10° ESE
Cosmos 1953 2.6 17:30:28 10° SSE 17:34:22 47° E 17:38:18 10° NNE
Cosmos 1758 Rocket 3.6 17:29:55 10° N 17:34:22 68° ENE 17:38:49 10° SSE
Cosmos 1992 Rocket 4.3 17:31:17 10° S 17:36:17 48° ESE 17:41:18 10° NNE
Cosmos 1503 Rocket 4.0 17:32:59 10° NNW 17:38:11 78° ENE 17:43:22 10° SSE
Cosmos 371 Rocket 4.5 17:33:36 10° SW 17:38:13 45° WNW 17:42:52 10° NNE
Unknown 3.7 17:34:15 10° SW 17:38:22 71° SSE 17:42:30 10° ENE
Unknown 3.7 17:34:24 10° SW 17:38:30 70° SSE 17:42:39 10° ENE
Unknown 3.7 17:35:06 10° SW 17:39:15 71° SSE 17:43:22 10° ENE
Cosmos 304 Rocket 3.8 17:34:28 10° SSW 17:39:17 89° ESE 17:44:08 10° NNE
Lacrosse 5 2.9 17:35:12 10° NW 17:39:48 33° N 17:44:24 10° ENE
Cosmos 1758 3.4 17:36:58 10° S 17:40:57 86° WNW 17:44:57 10° N
Unknown 4.0 17:37:20 10° W 17:41:00 50° NNW 17:44:39 10° ENE
CSL-04 Debris 4.5 17:36:43 10° SE 17:41:52 46° ENE 17:47:05 10° N
Cosmos 724 4.4 17:36:40 10° SSW 17:42:49 84° SE 17:48:54 10° NE
Unknown 3.6 17:39:05 10° SW 17:43:13 75° SSE 17:47:22 10° ENE
Unknown 3.6 17:39:21 10° SW 17:43:29 75° SSE 17:47:38 10° ENE
Cosmos 2285 Rocket 4.1 17:37:16 10° NNW 17:43:46 86° ENE 17:50:11 10° SSE
Unknown 3.6 17:41:06 10° WSW 17:45:15 79° SSE 17:49:25 10° ENE
Cosmos 839 Rocket 4.2 17:40:30 10° NNW 17:46:34 56° NE 17:53:12 10° SE
Unknown 3.6 17:44:25 10° WSW 17:48:34 82° SSE 17:52:43 10° ENE
Unknown 3.9 17:45:04 10° W 17:48:50 55° NNW 17:52:38 10° ENE
Cosmos 1461 4.4 17:45:52 10° NNW 17:48:54 20° NE 17:51:48 11° E
Unknown 3.6 17:44:53 10° WSW 17:49:02 81° SSE 17:53:11 10° ENE
FengYun 1-2 T 4.3 17:43:45 10° SSE 17:49:19 65° ENE 17:54:53 10° N
SKYMED 2 3.8 17:45:53 10° NNE 17:50:06 47° E 17:54:18 10° S
Unknown 3.6 17:45:59 10° WSW 17:50:08 82° SSE 17:54:19 10° ENE
Unknown 3.8 17:47:40 10° W 17:51:33 60° NNW 17:55:25 10° ENE
Unknown 3.6 17:49:12 10° WSW 17:53:21 83° SSE 17:57:25 11° ENE
Cosmos 1844 Rocket 2.7 17:50:18 10° SSW 17:55:56 73° ESE 18:01:35 10° NNE
YAOGAN 1 2.7 17:51:57 10° SE 17:56:08 50° ENE 18:00:21 10° N
COBE Rocket 4.0 17:51:31 10° NNE 17:56:43 72° E 18:01:49 10° S
Unknown 3.6 17:52:36 10° WSW 17:56:46 88° SE 18:00:42 11° ENE
YAOGAN 6 2.6 17:54:40 10° SSE 17:58:17 61° ENE 18:01:54 10° N
Unknown 3.6 17:54:17 10° WSW 17:58:26 90° SSE 18:02:18 12° ENE
H-2A R/B 3.8 17:57:23 11° ENE 17:59:33 14° NE 18:02:15 10° NNE
Unknown 3.6 17:55:57 10° WSW 18:00:06 88° NNW 18:03:54 12° ENE
Unknown 3.6 17:57:36 10° WSW 18:01:46 87° NNW 18:05:30 13° ENE
Meteor 1-16 Rocket 4.3 17:56:35 10° S 18:01:59 53° E 18:07:15 10° NNE
Cosmos 1939 Rocket 3.7 17:59:17 10° SE 18:02:46 30° ENE 18:06:20 10° N
Lacrosse 5 rocket 1.9 17:59:27 10° WNW 18:03:07 52° SW 18:06:56 10° SE
Unknown 3.6 18:00:54 10° WSW 18:05:03 84° NNW 18:08:39 14° ENE
Unknown 3.6 18:02:38 10° WSW 18:06:48 82° NNW 18:10:20 14° ENE
Cosmos 1908 4.1 18:04:07 10° SSE 18:07:30 29° E 18:10:54 10° NNE
Unknown 3.7 18:04:17 10° WSW 18:08:26 81° NNW 18:11:55 14° ENE
Cosmos 1726 Rocket 3.5 18:04:53 10° S 18:09:17 78° E 18:13:40 10° NNE
Unknown 3.7 18:05:53 10° WSW 18:10:03 81° NNW 18:13:26 15° ENE
Unknown 3.7 18:06:23 10° WSW 18:10:32 79° NNW 18:13:55 15° ENE
ATLAS CENTAUR R/B 4.1 18:10:40 10° NNW 18:12:01 11° N 18:13:20 10° N
Unknown 3.7 18:09:03 10° WSW 18:13:12 81° NNW 18:16:29 16° ENE
Cosmos 1470 4.4 18:10:05 10° SW 18:13:49 38° WNW 18:17:35 10° N
Shenzhou-11 Module 3.5 18:11:53 10° SW 18:14:09 23° S 18:15:24 17° SE
Cosmos 2278 Rocket 3.0 18:10:11 10° SSE 18:14:53 28° ESE 18:19:38 10° NE
Cosmos 1328 3.7 18:11:44 10° N 18:15:43 63° ENE 18:19:38 10° SSE
Unknown 3.7 18:12:25 10° WSW 18:16:35 78° NNW 18:19:43 17° ENE
CZ-4C R/B 4.1 18:09:46 10° NW 18:16:39 46° WSW 18:24:22 10° S
Unknown 3.7 18:14:02 10° WSW 18:18:11 77° NNW 18:21:15 18° ENE
Cosmos 2228 3.1 18:14:17 10° SSW 18:18:40 81° W 18:23:03 10° N
Cosmos 1844 3.7 18:13:01 10° SSW 18:18:45 85° ESE 18:24:34 10° NNE
Unknown 3.8 18:15:59 10° WSW 18:20:08 72° NNW 18:23:08 18° ENE
Unknown 3.7 18:17:22 10° WSW 18:21:31 74° NNW 18:24:27 19° ENE
Cosmos 2058 Rocket 2.9 18:17:34 10° S 18:21:54 69° E 18:26:15 10° NNE
Unknown 3.7 18:19:04 10° WSW 18:23:12 73° NNW 18:26:04 19° ENE
CZ-4 R/B 1.9 18:19:31 10° S 18:23:38 67° WSW 18:27:51 10° NNW
ATLAS 5 CENTAUR R/B 2.4 18:20:12 10° WSW 18:24:27 52° NW 18:29:17 10° NE
Envisat 3.9 18:20:30 10° S 18:25:28 53° W 18:30:28 10° NNW
Unknown 3.8 18:22:24 10° WSW 18:26:33 70° NNW 18:29:16 21° ENE
Unknown 3.8 18:24:06 10° WSW 18:28:14 69° NNW 18:30:54 21° ENE
Cosmos 921 Rocket 3.0 18:25:04 10° SSW 18:29:36 89° E 18:34:05 10° NNE
Unknown 3.8 18:25:46 10° WSW 18:29:53 68° NNW 18:32:29 22° ENE
Unknown 3.8 18:27:27 10° WSW 18:31:34 67° NNW 18:34:06 23° ENE
Cosmos 1605 Rocket 3.9 18:27:04 10° N 18:33:18 71° E 18:39:25 10° SSE
Abrixas rocket 4.2 18:31:45 10° S 18:32:58 14° SSE 18:32:58 14° SSE
Unknown 3.9 18:30:47 10° WSW 18:34:53 65° NNW 18:37:16 24° ENE
Cosmos 1356 3.3 18:32:15 10° S 18:35:41 83° E 18:39:08 10° NNE
Unknown 2.8 18:32:52 10° WNW 18:35:59 71° NNE 18:36:51 43° E
Unknown 3.9 18:32:21 10° W 18:36:28 63° NNW 18:38:47 25° NE
Unknown 4.0 18:32:46 10° W 18:36:53 60° NNW 18:39:10 24° NE
Cosmos 2084 3.9 18:32:30 10° SW 18:37:01 66° NW 18:41:05 12° NE
DMSP B5D1-3 4.5 18:32:36 10° NNE 18:37:42 62° ESE 18:42:46 10° S
COSMO-SKYMED 1 3.2 18:33:57 10° N 18:38:14 57° WNW 18:42:29 10° SSW
Unknown 4.0 18:34:22 10° W 18:38:29 60° NNW 18:40:43 25° NE
ADEOS Rocket 4.2 18:32:09 10° NNE 18:38:33 28° E 18:44:37 10° SE
FALCON 9 DEB 3.9 18:35:37 10° WNW 18:38:57 42° N 18:39:59 32° NE
CSL-04 Rocket 4.1 18:35:01 10° S 18:40:31 66° WSW 18:46:01 10° NNW
Unknown 3.9 18:37:22 10° W 18:41:29 61° NNW 18:43:35 27° NE
Cosmos 1727 Rocket 4.1 18:36:22 10° SSE 18:42:14 48° E 18:48:07 10° NNE
USA 116 3.4 18:40:12 10° N 18:43:19 69° WNW 18:46:34 10° SSW
Unknown 3.9 18:40:23 10° WNW 18:43:45 41° N 18:44:38 34° NE
Resurs 01 Rocket 3.8 18:45:25 12° NE 18:45:25 12° NE 18:46:12 10° NNE
Unknown 4.0 18:40:45 10° W 18:44:51 59° NNW 18:46:48 29° NE
ASTEX 1 4.1 18:40:04 10° N 18:44:55 56° W 18:49:46 10° SSW
Cosmos 1934 Rocket 4.4 18:39:39 10° NNW 18:45:55 66° W 18:52:12 10° S
NOAA 11 4.1 18:40:28 10° SSE 18:45:56 86° ENE 18:51:24 10° NNW
Unknown 4.0 18:42:29 10° W 18:46:35 59° NNW 18:48:29 29° NE
Unknown 3.6 18:44:20 10° WNW 18:47:38 46° NNE 18:48:13 41° NE
Unknown 4.0 18:44:05 10° W 18:48:11 58° NNW 18:50:00 30° NE
SJ 16-02 3.4 18:46:01 10° NNE 18:47:27 13° NE 18:47:27 13° NE
CZ-2D R/B 3.3 18:45:32 10° S 18:49:22 78° WSW 18:53:15 10° NNW
Unknown 4.0 18:45:50 10° W 18:49:55 57° NNW 18:51:40 31° NE
Unknown 4.1 18:47:06 10° W 18:51:07 54° NNW 18:52:46 31° NE
SL-4 R/B 4.3 18:50:54 10° W 18:53:26 17° SW 18:55:52 10° S
Cosmos 1726 2.8 18:49:58 10° SSW 18:53:33 54° WNW 18:57:09 10° N
Cosmos 2173 Rocket 4.3 18:48:28 10° N 18:54:26 42° ENE 18:56:56 29° ESE
Cosmos 2058 3.9 18:51:43 10° N 18:54:47 31° NE 18:54:47 31° NE
Unknown 4.1 18:52:28 10° W 18:56:32 54° NNW 18:58:01 35° NE
Cosmos 1833 Rocket 2.6 18:51:06 10° NNW 18:56:45 72° ENE 18:59:52 27° SE
ARGOS 3.8 18:57:06 33° ENE 18:57:44 34° ENE 19:02:36 10° N
BREEZE M DEB (TANK) 3.0 18:55:15 10° W 18:57:46 45° SSW 18:59:45 28° SE
Unknown 4.1 18:54:10 10° W 18:58:14 54° NNW 18:59:38 36° NE
Unknown 4.2 18:55:43 10° W 18:59:39 47° N 19:00:51 35° NE
Falcon 9 debris 3.5 18:56:27 10° WNW 18:59:51 49° NNE 18:59:57 49° NNE
Unknown 4.1 18:55:51 10° W 18:59:55 53° NNW 19:01:14 37° NE
Unknown 4.1 18:57:25 10° W 19:01:29 53° NNW 19:02:44 37° NE
Unknown 4.2 19:00:38 10° W 19:02:50 29° SW 19:02:50 29° SW
Unknown 4.2 18:59:10 10° W 19:03:13 52° NNW 19:04:24 38° NE
Gbstr 26 Del rocket 4.1 18:58:56 10° WNW 19:05:09 87° NNE 19:08:28 36° ESE
Unknown 4.2 19:02:33 10° W 19:06:37 51° NNW 19:07:39 40° NNE
Unknown 3.7 19:03:40 10° WNW 19:06:59 49° N 19:06:59 49° N
Ariane Rocket 3.2 19:02:53 10° S 19:07:58 72° WSW 19:13:05 10° NNW
Starlink (trailer) 4.2 19:04:14 10° W 19:08:17 51° NNW 19:09:14 41° NNE
USA 238 DEB 3.9 19:03:00 10° S 19:09:15 44° ESE 19:11:09 36° E
USA 238 3.9 19:03:07 10° S 19:09:22 44° ESE 19:11:10 36° E
Unknown 4.2 19:05:53 10° W 19:09:56 50° NNW 19:10:49 42° NNE
Unknown 4.2 19:07:30 10° W 19:11:33 50° NNW 19:12:22 42° NNE
SJ-6B 3.9 19:14:19 31° NNE 19:14:19 31° NNE 19:16:33 10° N
Cosmos 2100 Rocket 3.9 19:07:35 10° N 19:13:46 61° ENE 19:16:25 34° SE
Cosmos 967 Rocket 4.5 19:08:15 10° NW 19:14:44 70° NE 19:17:00 42° ESE
Cosmos 2082 Rocket 2.1 19:10:56 10° NNW 19:16:41 72° ENE 19:18:19 47° SE
COSMOS 2406 4.4 19:12:35 10° NW 19:18:00 42° WSW 19:23:22 10° S
Unknown 4.2 19:14:06 10° W 19:18:07 48° N 19:18:39 45° NNE
Unknown 4.2 19:14:15 10° W 19:18:17 48° N 19:18:48 45° NNE
Unknown 4.2 19:14:58 10° W 19:19:00 48° N 19:19:29 45° NNE
Unknown 4.2 19:15:56 10° WNW 19:19:16 41° N 19:19:16 41° N
SPOT 3 Rocket 3.5 19:19:13 56° ESE 19:19:55 61° ENE 19:25:03 10° N
Unknown 4.2 19:19:00 10° W 19:23:00 47° N 19:23:19 46° N
Unknown 4.2 19:19:16 10° W 19:23:17 47° N 19:23:35 46° N
Lacrosse 5 1.7 19:18:21 10° NW 19:23:26 72° NNE 19:23:56 66° ENE
Cosmos 1812 Rocket 3.4 19:19:14 10° S 19:23:39 90° SSE 19:28:08 10° N
Unknown 4.3 19:21:04 10° W 19:25:05 46° N 19:25:17 46° N
Unknown 4.4 19:24:01 10° WNW 19:27:16 39° NNW 19:27:16 39° NNW
Unknown 4.3 19:24:24 10° W 19:28:24 46° N 19:28:28 46° N
Cosmos 1461 2.9 19:24:22 10° NW 19:28:13 75° W 19:28:13 75° W
Unknown 4.3 19:24:51 10° W 19:28:52 46° N 19:28:55 46° N
Unknown 4.3 19:25:58 10° W 19:29:59 46° N 19:29:59 46° N
Unknown 4.5 19:26:54 10° WNW 19:30:11 39° NNW 19:30:11 39° NNW
Cosmos 2084 Rocket 4.1 19:27:46 10° NW 19:31:23 47° N 19:31:23 47° N
MOS 1 4.5 19:28:54 18° S 19:33:10 70° WSW 19:38:49 10° NNW
Unknown 4.4 19:29:12 10° W 19:33:04 45° NNW 19:33:04 45° NNW
NOSS 3-2 (A) 3.9 19:30:01 10° SSW 19:33:54 40° SSE 19:33:54 40° SSE
Unknown 4.5 19:32:38 10° W 19:36:21 44° NNW 19:36:21 44° NNW
Cosmos 2016 Rocket 3.9 19:31:49 10° N 19:38:01 60° ENE 19:38:11 60° E
H-2A R/B 2.0 19:38:01 74° ENE 19:38:02 74° ENE 19:43:27 10° N
Cosmos 1076 Rocket 3.8 19:34:30 10° NNW 19:38:52 64° W 19:39:05 63° WSW
NOSS 3-3 (A) 4.4 19:32:41 10° NW 19:40:08 86° NE 19:42:40 49° SE
NOSS 3-3 (C) 4.4 19:32:47 10° NW 19:40:14 85° NE 19:42:44 49° SE
In-Cosmos 22 Rocket 4.0 19:39:55 10° N 19:45:16 85° ENE 19:45:16 85° ENE
Cosmos 2061 Rocket 3.8 19:43:02 10° N 19:49:19 76° E 19:49:35 74° ESE
ATLAS CENTAUR R/B 4.0 19:50:30 10° NNW 19:52:13 14° N 19:52:13 14° N
Cosmos 2278 Rocket 2.8 19:53:06 10° SW 19:58:39 55° WNW 20:04:15 10° NNE
CZ-2C R/B 3.5 20:02:00 61° NNE 20:02:00 61° NNE 20:06:50 10° N
Cosmos 1898 Rocket 4.2 20:04:37 10° NNW 20:08:27 49° NNW 20:08:27 49° NNW
ATLAS 5 CENTAUR R/B 4.1 20:06:56 10° WNW 20:10:18 19° NNW 20:11:49 17° N
Resurs 01 Rocket 3.9 20:22:59 19° NNW 20:22:59 19° NNW 20:24:19 10° NNW
ADEOS Rocket 3.6 20:16:56 10° NNE 20:24:42 74° WNW 20:32:01 10° SSW
SJ 16-02 3.7 20:23:13 10° NNW 20:24:27 19° NNW 20:24:27 19° NNW
ARGOS 4.4 20:38:37 39° WNW 20:38:37 39° WNW 20:43:03 10° NNW
USA 238 DEB 4.5 20:53:32 10° WSW 20:58:40 46° WNW 20:58:40 46° WNW
Cosmos 2082 Rocket 4.2 20:56:03 10° NW 21:00:11 21° W 21:00:11 21° W
USA 238 4.5 20:53:38 10° WSW 20:58:42 45° W 20:58:42 45° W
Lacrosse 5 4.4 21:01:45 10° WNW 21:03:09 17° W 21:03:09 17° W
H-2A R/B 4.5 21:18:39 18° W 21:18:39 18° W 21:21:40 10° NW
